UR7D-10 Weather Reports


time (UTC)temp
C
wind
direction
speed
KPH
gust
KPH
rain 1hr
cm
rain 24hr
cm
rain mn
cm
humidity
%
barometer
mb
20260507030846 12 149 0.0 0.0 0.00 0.00 0.00 78 1012.4
20260507020843 15 100 0.0 0.0 0.00 0.00 0.00 72 1012.3
20260507010840 14 134 0.0 0.0 0.00 0.00 0.00 73 1011.9
20260507000836 15 170 0.0 0.0 0.00 0.00 0.00 70 1011.7
20260506230833 17 161 0.0 1.6 0.00 0.00 0.00 62 1011.7
20260506220829 20 347 0.0 1.6 0.00 0.00 0.00 52 1011.6
20260506210826 21 221 4.8 8.0 0.00 0.00 0.00 49 1011.8
20260506200822 22 143 8.0 12.9 0.00 0.00 0.00 46 1011.5
20260506190819 22 118 8.0 11.3 0.00 0.00 0.00 46 1011.7
20260506140803 25 175 4.8 11.3 0.00 0.00 0.00 39 1011.5
20260506130800 25 62 9.7 22.5 0.00 0.00 0.00 38 1012.0
20260506120756 25 248 8.0 24.1 0.00 0.00 0.00 39 1012.6
20260506110753 25 243 8.0 9.7 0.00 0.00 0.00 40 1013.0
20260506100749 23 143 11.3 19.3 0.00 0.00 0.00 41 1013.4
20260506090744 22 155 8.0 19.3 0.00 0.00 0.00 45 1013.5
20260506080741 21 196 6.4 12.9 0.00 0.00 0.00 49 1013.2
20260506070737 19 191 6.4 17.7 0.00 0.00 0.00 52 1013.4
20260506060734 16 238 4.8 12.9 0.00 0.00 0.00 55 1013.0
20260506050731 15 260 3.2 6.4 0.00 0.00 0.00 56 1012.7
20260506040727 12 289 0.0 0.0 0.00 0.00 0.00 64 1012.6